Time,TemperatureF,DewpointF,PressureIn,WindDirection,WindDirectionDegrees,WindSpeedMPH,WindSpeedGustMPH,Humidity,HourlyPrecipIn,Conditions,Clouds,dailyrainin,SoftwareType,DateUTC
2013-09-20 00:12:00,54.0,32.0,-100.00,South,180,2.0,6.0,42,-99.99,,,-99.99,,2013-09-20 00:12:00,
2013-09-20 00:21:00,54.0,30.0,-100.00,West,260,2.0,7.0,38,-99.99,,,-99.99,,2013-09-20 00:21:00,
2013-09-20 00:32:00,54.0,30.0,-100.00,West,260,2.0,7.0,38,-99.99,,,-99.99,,2013-09-20 00:32:00,
2013-09-20 00:42:00,54.0,30.0,-100.00,West,260,2.0,7.0,38,-99.99,,,-99.99,,2013-09-20 00:42:00,
2013-09-20 00:52:00,53.0,30.0,-100.00,WNW,295,1.0,6.0,41,-99.99,,,-99.99,,2013-09-20 00:52:00,
2013-09-20 01:02:00,53.0,30.0,-100.00,WNW,295,1.0,6.0,41,-99.99,,,-99.99,,2013-09-20 01:02:00,
2013-09-20 01:12:00,53.0,30.0,-100.00,WNW,295,1.0,6.0,41,-99.99,,,-99.99,,2013-09-20 01:12:00,
2013-09-20 01:22:00,50.0,27.0,-100.00,SSE,160,4.0,7.0,42,-99.99,,,-99.99,,2013-09-20 01:22:00,
2013-09-20 01:32:00,50.0,27.0,-100.00,SSE,160,4.0,7.0,42,-99.99,,,-99.99,,2013-09-20 01:32:00,
2013-09-20 01:42:00,50.0,27.0,-100.00,SSE,160,4.0,7.0,42,-99.99,,,-99.99,,2013-09-20 01:42:00,
2013-09-20 01:52:00,49.0,28.0,-100.00,South,185,2.0,6.0,43,-99.99,,,-99.99,,2013-09-20 01:52:00,
2013-09-20 02:02:00,49.0,28.0,-100.00,South,185,2.0,6.0,43,-99.99,,,-99.99,,2013-09-20 02:02:00,
2013-09-20 02:12:00,49.0,28.0,-100.00,South,185,2.0,6.0,43,-99.99,,,-99.99,,2013-09-20 02:12:00,
2013-09-20 02:22:00,47.0,27.0,-100.00,SSW,200,3.0,6.0,44,-99.99,,,-99.99,,2013-09-20 02:22:00,
2013-09-20 02:32:00,47.0,27.0,-100.00,SSW,200,3.0,6.0,44,-99.99,,,-99.99,,2013-09-20 02:32:00,
2013-09-20 02:42:00,47.0,27.0,-100.00,SSW,200,3.0,6.0,44,-99.99,,,-99.99,,2013-09-20 02:42:00,
2013-09-20 02:52:00,46.0,27.0,-100.00,WSW,245,1.0,4.0,45,-99.99,,,-99.99,,2013-09-20 02:52:00,
2013-09-20 03:02:00,46.0,27.0,-100.00,WSW,245,1.0,4.0,45,-99.99,,,-99.99,,2013-09-20 03:02:00,
2013-09-20 03:12:00,46.0,27.0,-100.00,WSW,245,1.0,4.0,45,-99.99,,,-99.99,,2013-09-20 03:12:00,
2013-09-20 03:22:00,46.0,27.0,-100.00,SW,225,1.0,5.0,47,-99.99,,,-99.99,,2013-09-20 03:22:00,
2013-09-20 03:34:00,46.0,27.0,-100.00,SW,225,1.0,5.0,47,-99.99,,,-99.99,,2013-09-20 03:34:00,
2013-09-20 03:45:00,46.0,27.0,-100.00,SW,225,1.0,5.0,47,-99.99,,,-99.99,,2013-09-20 03:45:00,
2013-09-20 03:55:00,44.0,29.0,-100.00,SW,235,2.0,4.0,55,-99.99,,,-99.99,,2013-09-20 03:55:00,
2013-09-20 04:05:00,44.0,29.0,-100.00,SW,235,2.0,4.0,55,-99.99,,,-99.99,,2013-09-20 04:05:00,
2013-09-20 04:14:00,44.0,29.0,-100.00,SW,235,2.0,4.0,55,-99.99,,,-99.99,,2013-09-20 04:14:00,
2013-09-20 04:24:00,44.0,30.0,-100.00,SSW,210,2.0,4.0,59,-99.99,,,-99.99,,2013-09-20 04:24:00,
2013-09-20 04:34:00,44.0,30.0,-100.00,SSW,210,2.0,4.0,59,-99.99,,,-99.99,,2013-09-20 04:34:00,
2013-09-20 04:44:00,44.0,30.0,-100.00,SSW,210,2.0,4.0,59,-99.99,,,-99.99,,2013-09-20 04:44:00,
2013-09-20 04:53:00,42.0,31.0,-100.00,South,185,2.0,4.0,64,-99.99,,,-99.99,,2013-09-20 04:53:00,
2013-09-20 05:03:00,42.0,31.0,-100.00,South,185,2.0,4.0,64,-99.99,,,-99.99,,2013-09-20 05:03:00,
2013-09-20 05:13:00,42.0,31.0,-100.00,South,185,2.0,4.0,64,-99.99,,,-99.99,,2013-09-20 05:13:00,
2013-09-20 05:23:00,43.0,32.0,-100.00,SW,230,1.0,4.0,64,-99.99,,,-99.99,,2013-09-20 05:23:00,
2013-09-20 05:34:00,43.0,32.0,-100.00,SW,230,1.0,4.0,64,-99.99,,,-99.99,,2013-09-20 05:34:00,
2013-09-20 05:43:00,43.0,32.0,-100.00,SW,230,1.0,4.0,64,-99.99,,,-99.99,,2013-09-20 05:43:00,
2013-09-20 05:53:00,43.0,33.0,-100.00,SSW,200,3.0,4.0,68,-99.99,,,-99.99,,2013-09-20 05:53:00,
2013-09-20 06:03:00,43.0,33.0,-100.00,SSW,200,3.0,4.0,68,-99.99,,,-99.99,,2013-09-20 06:03:00,
2013-09-20 06:12:00,43.0,33.0,-100.00,SSW,200,3.0,4.0,68,-99.99,,,-99.99,,2013-09-20 06:12:00,
2013-09-20 06:22:00,43.0,33.0,-100.00,SW,235,3.0,7.0,67,-99.99,,,-99.99,,2013-09-20 06:22:00,
2013-09-20 06:33:00,43.0,33.0,-100.00,SW,235,3.0,7.0,67,-99.99,,,-99.99,,2013-09-20 06:33:00,
2013-09-20 06:42:00,43.0,33.0,-100.00,SW,235,3.0,7.0,67,-99.99,,,-99.99,,2013-09-20 06:42:00,
2013-09-20 06:52:00,43.0,31.0,-100.00,WSW,250,4.0,9.0,63,-99.99,,,-99.99,,2013-09-20 06:52:00,
2013-09-20 07:02:00,43.0,31.0,-100.00,WSW,250,4.0,9.0,63,-99.99,,,-99.99,,2013-09-20 07:02:00,
2013-09-20 07:11:00,43.0,31.0,-100.00,WSW,250,4.0,9.0,63,-99.99,,,-99.99,,2013-09-20 07:11:00,
2013-09-20 07:22:00,42.0,30.0,-100.00,SW,225,3.0,9.0,60,-99.99,,,-99.99,,2013-09-20 07:22:00,
2013-09-20 07:32:00,42.0,30.0,-100.00,SW,225,3.0,9.0,60,-99.99,,,-99.99,,2013-09-20 07:32:00,
2013-09-20 07:42:00,42.0,30.0,-100.00,SW,225,3.0,9.0,60,-99.99,,,-99.99,,2013-09-20 07:42:00,
2013-09-20 07:52:00,41.0,29.0,-100.00,SW,235,2.0,10.0,63,-99.99,,,-99.99,,2013-09-20 07:52:00,
2013-09-20 08:02:00,41.0,29.0,-100.00,SW,235,2.0,10.0,63,-99.99,,,-99.99,,2013-09-20 08:02:00,
2013-09-20 08:11:00,41.0,29.0,-100.00,SW,235,2.0,10.0,63,-99.99,,,-99.99,,2013-09-20 08:11:00,
2013-09-20 08:21:00,40.0,29.0,-100.00,WSW,240,6.0,12.0,66,-99.99,,,-99.99,,2013-09-20 08:21:00,
2013-09-20 08:32:00,40.0,29.0,-100.00,WSW,240,6.0,12.0,66,-99.99,,,-99.99,,2013-09-20 08:32:00,
2013-09-20 08:42:00,40.0,29.0,-100.00,WSW,240,6.0,12.0,66,-99.99,,,-99.99,,2013-09-20 08:42:00,
2013-09-20 08:52:00,39.0,29.0,-100.00,SW,220,6.0,11.0,66,-99.99,,,-99.99,,2013-09-20 08:52:00,
2013-09-20 09:01:00,39.0,29.0,-100.00,SW,220,6.0,11.0,66,-99.99,,,-99.99,,2013-09-20 09:01:00,
2013-09-20 09:12:00,39.0,29.0,-100.00,SW,220,6.0,11.0,66,-99.99,,,-99.99,,2013-09-20 09:12:00,
2013-09-20 09:22:00,37.0,28.0,-100.00,SW,235,4.0,12.0,68,-99.99,,,-99.99,,2013-09-20 09:22:00,
2013-09-20 09:33:00,37.0,28.0,-100.00,SW,235,4.0,12.0,68,-99.99,,,-99.99,,2013-09-20 09:33:00,
2013-09-20 09:43:00,37.0,28.0,-100.00,SW,235,4.0,12.0,68,-99.99,,,-99.99,,2013-09-20 09:43:00,
2013-09-20 09:53:00,36.0,28.0,-100.00,West,280,2.0,13.0,71,-99.99,,,-99.99,,2013-09-20 09:53:00,
2013-09-20 10:03:00,36.0,28.0,-100.00,West,280,2.0,13.0,71,-99.99,,,-99.99,,2013-09-20 10:03:00,
2013-09-20 10:12:00,36.0,28.0,-100.00,West,280,2.0,13.0,71,-99.99,,,-99.99,,2013-09-20 10:12:00,
2013-09-20 10:23:00,36.0,27.0,-100.00,WSW,255,3.0,10.0,72,-99.99,,,-99.99,,2013-09-20 10:23:00,
2013-09-20 10:32:00,36.0,27.0,-100.00,WSW,255,3.0,10.0,72,-99.99,,,-99.99,,2013-09-20 10:32:00,
2013-09-20 10:42:00,36.0,27.0,-100.00,WSW,255,3.0,10.0,72,-99.99,,,-99.99,,2013-09-20 10:42:00,
2013-09-20 10:53:00,35.0,27.0,-100.00,West,260,4.0,12.0,72,-99.99,,,-99.99,,2013-09-20 10:53:00,
2013-09-20 11:03:00,35.0,27.0,-100.00,West,260,4.0,12.0,72,-99.99,,,-99.99,,2013-09-20 11:03:00,
2013-09-20 11:12:00,35.0,27.0,-100.00,West,260,4.0,12.0,72,-99.99,,,-99.99,,2013-09-20 11:12:00,
2013-09-20 11:23:00,34.0,27.0,-100.00,West,260,3.0,10.0,73,-99.99,,,-99.99,,2013-09-20 11:23:00,
2013-09-20 11:33:00,34.0,27.0,-100.00,West,260,3.0,10.0,73,-99.99,,,-99.99,,2013-09-20 11:33:00,
2013-09-20 11:42:00,34.0,27.0,-100.00,West,260,3.0,10.0,73,-99.99,,,-99.99,,2013-09-20 11:42:00,
2013-09-20 11:52:00,33.0,26.0,-100.00,WSW,255,2.0,11.0,75,-99.99,,,-99.99,,2013-09-20 11:52:00,
2013-09-20 12:02:00,33.0,26.0,-100.00,WSW,255,2.0,11.0,75,-99.99,,,-99.99,,2013-09-20 12:02:00,
2013-09-20 12:12:00,33.0,26.0,-100.00,WSW,255,2.0,11.0,75,-99.99,,,-99.99,,2013-09-20 12:12:00,
2013-09-20 12:22:00,33.0,26.0,-100.00,West,260,4.0,12.0,74,-99.99,,,-99.99,,2013-09-20 12:22:00,
2013-09-20 12:32:00,33.0,26.0,-100.00,West,260,4.0,12.0,74,-99.99,,,-99.99,,2013-09-20 12:32:00,
2013-09-20 12:42:00,33.0,26.0,-100.00,West,260,4.0,12.0,74,-99.99,,,-99.99,,2013-09-20 12:42:00,
2013-09-20 12:52:00,33.0,26.0,-100.00,West,275,4.0,11.0,75,-99.99,,,-99.99,,2013-09-20 12:52:00,
2013-09-20 13:02:00,33.0,26.0,-100.00,West,275,4.0,11.0,75,-99.99,,,-99.99,,2013-09-20 13:02:00,
2013-09-20 13:12:00,33.0,26.0,-100.00,West,275,4.0,11.0,75,-99.99,,,-99.99,,2013-09-20 13:12:00,
2013-09-20 13:21:00,33.0,25.0,-100.00,SW,235,4.0,11.0,74,-99.99,,,-99.99,,2013-09-20 13:21:00,
2013-09-20 13:32:00,33.0,25.0,-100.00,SW,235,4.0,11.0,74,-99.99,,,-99.99,,2013-09-20 13:32:00,
2013-09-20 13:42:00,33.0,25.0,-100.00,SW,235,4.0,11.0,74,-99.99,,,-99.99,,2013-09-20 13:42:00,
2013-09-20 13:52:00,32.0,25.0,-100.00,WSW,255,4.0,13.0,75,-99.99,,,-99.99,,2013-09-20 13:52:00,
2013-09-20 14:02:00,32.0,25.0,-100.00,WSW,255,4.0,13.0,75,-99.99,,,-99.99,,2013-09-20 14:02:00,
2013-09-20 14:11:00,32.0,25.0,-100.00,WSW,255,4.0,13.0,75,-99.99,,,-99.99,,2013-09-20 14:11:00,
2013-09-20 14:21:00,32.0,25.0,-100.00,SW,225,4.0,10.0,73,-99.99,,,-99.99,,2013-09-20 14:21:00,
2013-09-20 14:32:00,32.0,25.0,-100.00,SW,225,4.0,10.0,73,-99.99,,,-99.99,,2013-09-20 14:32:00,
2013-09-20 14:42:00,32.0,25.0,-100.00,SW,225,4.0,10.0,73,-99.99,,,-99.99,,2013-09-20 14:42:00,
2013-09-20 14:52:00,32.0,25.0,-100.00,West,260,4.0,12.0,73,-99.99,,,-99.99,,2013-09-20 14:52:00,
2013-09-20 15:02:00,32.0,25.0,-100.00,West,260,4.0,12.0,73,-99.99,,,-99.99,,2013-09-20 15:02:00,
2013-09-20 15:12:00,32.0,25.0,-100.00,West,260,4.0,12.0,73,-99.99,,,-99.99,,2013-09-20 15:12:00,
2013-09-20 15:21:00,31.0,24.0,-100.00,WSW,250,4.0,12.0,72,-99.99,,,-99.99,,2013-09-20 15:21:00,
2013-09-20 15:33:00,31.0,24.0,-100.00,WSW,250,4.0,12.0,72,-99.99,,,-99.99,,2013-09-20 15:33:00,
2013-09-20 15:44:00,31.0,24.0,-100.00,WSW,250,4.0,12.0,72,-99.99,,,-99.99,,2013-09-20 15:44:00,
2013-09-20 15:54:00,31.0,23.0,-100.00,West,265,3.0,7.0,72,-99.99,,,-99.99,,2013-09-20 15:54:00,
2013-09-20 16:04:00,31.0,23.0,-100.00,West,265,3.0,7.0,72,-99.99,,,-99.99,,2013-09-20 16:04:00,
2013-09-20 16:13:00,31.0,23.0,-100.00,West,265,3.0,7.0,72,-99.99,,,-99.99,,2013-09-20 16:13:00,
2013-09-20 16:23:00,31.0,23.0,-100.00,WSW,245,2.0,7.0,72,-99.99,,,-99.99,,2013-09-20 16:23:00,
2013-09-20 16:42:00,31.0,23.0,-100.00,WSW,245,2.0,7.0,72,-99.99,,,-99.99,,2013-09-20 16:42:00,
2013-09-20 16:52:00,31.0,24.0,-100.00,SW,220,2.0,7.0,74,-99.99,,,-99.99,,2013-09-20 16:52:00,
2013-09-20 17:03:00,31.0,24.0,-100.00,SW,220,2.0,7.0,74,-99.99,,,-99.99,,2013-09-20 17:03:00,
2013-09-20 17:13:00,31.0,24.0,-100.00,SW,220,2.0,7.0,74,-99.99,,,-99.99,,2013-09-20 17:13:00,
2013-09-20 17:23:00,30.0,24.0,-100.00,WNW,300,1.0,6.0,76,-99.99,,,-99.99,,2013-09-20 17:23:00,
2013-09-20 17:34:00,30.0,24.0,-100.00,WNW,300,1.0,6.0,76,-99.99,,,-99.99,,2013-09-20 17:34:00,
2013-09-20 17:42:00,30.0,24.0,-100.00,WNW,300,1.0,6.0,76,-99.99,,,-99.99,,2013-09-20 17:42:00,
2013-09-20 18:12:00,35.0,26.0,-100.00,SW,225,2.0,5.0,68,-99.99,,,-99.99,,2013-09-20 18:12:00,
2013-09-20 19:11:00,38.0,24.0,-100.00,SSW,200,2.0,5.0,56,-99.99,,,-99.99,,2013-09-20 19:11:00,
2013-09-20 19:22:00,39.0,24.0,-100.00,South,170,2.0,6.0,55,-99.99,,,-99.99,,2013-09-20 19:22:00,
2013-09-20 19:32:00,39.0,24.0,-100.00,South,170,2.0,6.0,55,-99.99,,,-99.99,,2013-09-20 19:32:00,
2013-09-20 19:42:00,39.0,24.0,-100.00,South,170,2.0,6.0,55,-99.99,,,-99.99,,2013-09-20 19:42:00,
2013-09-20 20:12:00,41.0,25.0,-100.00,South,170,2.0,4.0,52,-99.99,,,-99.99,,2013-09-20 20:12:00,
2013-09-20 20:42:00,42.0,26.0,-100.00,ENE,60,0.0,2.0,50,-99.99,,,-99.99,,2013-09-20 20:42:00,
2013-09-20 21:54:00,44.0,27.0,-100.00,South,175,3.0,4.0,50,-99.99,,,-99.99,,2013-09-20 21:54:00,
2013-09-20 22:04:00,44.0,27.0,-100.00,South,175,3.0,4.0,50,-99.99,,,-99.99,,2013-09-20 22:04:00,
2013-09-20 22:14:00,44.0,27.0,-100.00,South,175,3.0,4.0,50,-99.99,,,-99.99,,2013-09-20 22:14:00,
2013-09-20 22:23:00,45.0,27.0,-100.00,SSE,160,2.0,4.0,49,-99.99,,,-99.99,,2013-09-20 22:23:00,
2013-09-20 22:33:00,45.0,27.0,-100.00,SSE,160,2.0,4.0,49,-99.99,,,-99.99,,2013-09-20 22:33:00,
2013-09-20 22:43:00,45.0,27.0,-100.00,SSE,160,2.0,4.0,49,-99.99,,,-99.99,,2013-09-20 22:43:00,